Home > Weather > Muktsar > Past weeks

Flag for India Past Weather in Muktsar, Punjab, India — Yesterday and Last 2 Weeks

Now
95 °F

Scattered clouds.


Feels Like: 107 °F
Forecast: 88 / 105 °F
Wind: 7 mph from Southeast

Location: Lahore Airport

Current Time: Jun 28, 2016 at 3:15:00 PM

Latest Report: Jun 28, 2016 at 2:30 PM


Visibility: 5 mi

Pressure: 29.65 "Hg

Humidity: 53%

Dew Point: 75 °F

Location of MuktsarLocation

Past Weather in Muktsar — Graph

°F

Muktsar Temperature Yesterday

Maximum temperature yesterday: 100 °F (at 2:25 PM)
Minimum temperature yesterday: 86 °F (at 5:25 AM)
Average temperature yesterday: 92 °F

High & Low Weather Summary for the Past Weeks

 TemperatureHumidityPressure
High109 °F (Jun 14, 3:29 PM)100% (Jun 22, 9:25 AM)29.68 "Hg (Jun 22, 9:25 AM)
Low73 °F (Jun 17, 2:55 AM)26% (Jun 13, 5:25 PM)29.33 "Hg (Jun 15, 3:55 PM)
Average91 °F59%29.53 "Hg
* Reported Jun 13 1:55 PM — Jun 28 1:55 PM, Muktsar, Weather by CustomWeather, © 2016

Note: Actual official high and low records may vary slightly from our data, if they occured in-between our weather recording intervals... More about our weather records

Advertising

Muktsar Weather History for the Previous 24 Hours

Scroll right to see more
 ConditionsComfort  
Time TempWeatherWind HumidityBarometerVisibility
1:55 PM
Tue, Jun 28
95 °FScattered clouds.7 mph53%29.65 "Hg5 mi
1:30 PM95 °FScattered clouds.9 mph53%29.65 "Hg5 mi
1:00 PM93 °FScattered clouds.9 mph56%29.65 "Hg5 mi
12:30 PM93 °FScattered clouds.9 mph56%29.68 "Hg5 mi
11:55 AM91 °FScattered clouds.7 mph59%29.68 "Hg5 mi
11:25 AM91 °FScattered clouds.12 mph59%29.68 "Hg5 mi
10:55 AM90 °FScattered clouds.9 mph63%29.68 "Hg4 mi
10:25 AM90 °FScattered clouds.9 mph63%29.68 "Hg4 mi
10:00 AM88 °FPassing clouds.9 mph66%29.68 "Hg4 mi
9:30 AM88 °FPartly sunny.9 mph66%29.65 "Hg4 mi
9:00 AM86 °FScattered clouds.9 mph70%29.65 "Hg3 mi
8:25 AM84 °FScattered clouds.7 mph70%29.62 "Hg3 mi
6:55 AM82 °FBroken clouds.6 mph74%29.62 "Hg2 mi
6:25 AM81 °FBroken clouds.7 mph79%29.62 "Hg2 mi
5:55 AM81 °FBroken clouds.9 mph79%29.59 "Hg2 mi
5:25 AM81 °FPartly cloudy.10 mph79%29.59 "Hg2 mi
4:55 AM81 °FPartly cloudy.9 mph79%29.56 "Hg2 mi
4:25 AM81 °FThundershowers. Partly cloudy.5 mph79%29.53 "Hg2 mi
3:55 AM81 °FThundershowers. Partly cloudy.8 mph79%29.50 "Hg2 mi
3:25 AM81 °FThundershowers. Partly cloudy.5 mph79%29.53 "Hg2 mi
2:55 AM81 °FThundershowers. Mostly cloudy.6 mph79%29.53 "Hg2 mi
2:29 AM81 °FThundershowers. Mostly cloudy.7 mph79%29.56 "Hg2 mi
1:59 AM82 °FThunderstorms. Mostly cloudy.6 mph79%29.56 "Hg2 mi
1:29 AM82 °FThunderstorms. Mostly cloudy.3 mph79%29.59 "Hg2 mi
12:59 AM82 °FThunderstorms. Mostly cloudy.10 mph79%29.59 "Hg2 mi
11:59 PM
Mon, Jun 27
86 °FThunderstorms. Mostly cloudy.10 mph70%29.53 "Hg2 mi
11:29 PM90 °FThundershowers. Partly cloudy.14 mph63%29.53 "Hg2 mi
10:59 PM90 °FThundershowers. Partly cloudy.14 mph63%29.53 "Hg2 mi
10:29 PM90 °FThundershowers. Partly cloudy.6 mph63%29.53 "Hg2 mi
9:55 PM91 °FPartly cloudy.8 mph59%29.53 "Hg2 mi
9:25 PM91 °FPartly cloudy.9 mph59%29.50 "Hg2 mi
8:55 PM91 °FPartly cloudy.8 mph59%29.50 "Hg2 mi
8:25 PM91 °FPassing clouds.9 mph59%29.50 "Hg3 mi
7:55 PM93 °FPassing clouds.7 mph56%29.50 "Hg3 mi
7:25 PM95 °FScattered clouds.9 mph56%29.47 "Hg3 mi
6:55 PM95 °FScattered clouds.7 mph56%29.47 "Hg3 mi
6:25 PM97 °FScattered clouds.7 mph50%29.47 "Hg3 mi
5:55 PM97 °FScattered clouds.12 mph50%29.45 "Hg4 mi
5:30 PM99 °FScattered clouds.9 mph50%29.45 "Hg4 mi
5:00 PM99 °FScattered clouds.12 mph50%29.45 "Hg4 mi
4:30 PM100 °FPassing clouds.9 mph50%29.45 "Hg4 mi
4:00 PM100 °FScattered clouds.12 mph50%29.47 "Hg4 mi
3:30 PM100 °FScattered clouds.9 mph50%29.47 "Hg4 mi
3:00 PM100 °FScattered clouds.9 mph50%29.50 "Hg4 mi
Weather by CustomWeather, © 2016

See weather overviewHow to use our weather pages